Вернуться в каталог

DELTA 1 DEB

АктивенPO
NORAD 7979·DEBRIS·🇺🇸 United States

Запущен Jul 23, 1972 с Vandenberg Space Force Base

Loading…

Ближайшие Пролёты (ближайшие 24 часа)

TLE

СвежийSource: Space-Track

Эпоха: Sep 14, 2026, 11:59 UTC

1 07979U 72058DA  26257.49952054  .00000271  00000-0  19072-3 0  9996
2 07979  97.8232 266.2241 0400161 278.5579 239.8283 13.72042318553585

Отслеживайте DELTA 1 DEB в реальном времени с AllMySat

Download on the App Store